Location: Newark
(37.0833°N, 15.2833°E)
Time: 17:02:40
(UTC+00:00)

Envisat - Visible Passes

Search period start: 30 September 2020 00:00
Search period end: 10 October 2020 00:00
Orbit: 764 x 766 km, 98.1° (Epoch: 29 September)

Date Brightness Start Highest point End Pass type
(mag) Time Alt. Az. Time Alt. Az. Time Alt. Az.
30 Sep 6.2 03:48:52 10° ENE 03:51:46 15° E 03:54:40 10° SE visible
01 Oct 6.5 17:44:03 10° WSW 17:45:56 12° W 17:47:50 10° WNW visible
02 Oct 5.4 04:13:06 10° NE 04:17:25 28° E 04:21:42 10° SSE visible
02 Oct 5.4 17:04:29 10° SSW 17:08:49 28° W 17:13:12 10° NW visible
03 Oct 6.5 03:38:38 10° ENE 03:40:17 11° E 03:41:56 10° ESE visible
04 Oct 6.2 17:31:26 10° SW 17:34:27 16° W 17:37:29 10° NW visible
05 Oct 5.9 04:02:07 10° NE 04:05:58 22° E 04:09:49 10° SE visible
07 Oct 4.7 04:26:49 10° NNE 04:31:34 39° E 04:36:16 10° SSE visible
07 Oct 6.0 17:19:17 10° SW 17:23:00 20° W 17:26:44 10° NW visible
08 Oct 6.1 03:51:18 10° NE 03:54:31 17° E 03:57:42 10° SE visible
09 Oct 6.7 17:47:31 10° WSW 17:48:41 11° W 17:49:51 10° WNW visible
